Weather Roundup
Issued by NWS

Home | Current Version | Previous Version | Graphics & Text | Print | Product List | Glossary Off
Versions: 1 2 3 4 5 6 7 8 9 10 11 12 13 14 15 16 17 18 19 20 21 22 23 24 25 26 27 28 29 30 31 32 33 34 35 36 37 38 39 40 41 42 43 44 45 46 47 48 49 50

081
NZUS93 KARX 230910
HRRWXR

CURRENT HOURLY OBSERVATIONS ACROSS
MUCH OF THE UPPER MISSISSIPPI VALLEY
NATIONAL WEATHER SERVICE LA CROSSE WI
400 AM CDT SAT SEP 23 2017


...SOUTHEAST MINNESOTA...


CITY           SKY/WX    TMP DP  RH WIND       PRES   REMARKS
ROCHESTER      CLEAR     72  66  81 S9        29.95R
ROCHESTER/MAYO FAIR      75  66  74 S9        29.95R
WINONA         CLEAR     73  64  73 CALM      29.94R
AUSTIN         CLEAR     70  64  83 S6        29.95R
ALBERT LEA     CLEAR     75  68  78 S7        29.93R
DODGE CENTER   CLEAR     72  64  78 S10       29.94R
PRESTON        CLEAR     71  64  80 SW9       29.96R
OWATONNA       CLEAR     73  66  78 S9        29.92R
FARIBAULT      PTCLDY    73  66  78 S7        29.91R
$$

...ELSEWHERE IN MINNESOTA...


CITY           SKY/WX    TMP DP  RH WIND       PRES   REMARKS
MINNEAPOLIS    CLOUDY    80  69  69 S12G20    29.87R
INTNL FALLS    MOCLDY    67  65  93 CALM      29.74S
DULUTH         CLOUDY    74  69  85 SW12      29.86R
RED WING       CLEAR     75  64  69 CALM      29.90S
REDWOOD FALLS  CLOUDY    75  67  76 W3        29.85R
MANKATO        CLEAR     74  32  21 S9        29.89R
WORTHINGTON    CLEAR     73  67  81 S13G21    29.89S
FAIRMONT       CLEAR     73  68  84 S10       29.90S
$$

...SOUTHWEST WISCONSIN...


CITY           SKY/WX    TMP DP  RH WIND       PRES   REMARKS
LA CROSSE      CLEAR     76  67  73 S8        29.94R
PRAIRIE DU CHI CLEAR     73  62  68 E5        29.98S
BOSCOBEL       PTCLDY    72  64  76 S3        29.99R
LONE ROCK      CLEAR     65  63  93 CALM      30.00R
PLATTEVILLE    CLEAR     70  66  87 S6        30.02R
FORT MC COY    CLEAR     75  64  69 S9        29.97S
CAMP DOUGLAS   PTCLDY    65  63  94 E3        29.99R
MAUSTON-NEW LI MOSUNNY   71  65  82 CALM      29.98S
VIROQUA        FAIR      72  65  80 S8        30.00S
WIS DELLS      CLEAR     71  62  73 S6        30.00S
$$

...ELSEWHERE IN WISCONSIN...


CITY           SKY/WX    TMP DP  RH WIND       PRES   REMARKS
MILWAUKEE      CLEAR     75  67  76 SW7       30.02S
MADISON        CLEAR     67  65  93 CALM      30.02R
GREEN BAY      CLEAR     69  66  90 S6        30.00R
EAU CLAIRE     CLEAR     70  65  84 S6        29.93R
BLACK RVR FLS  FAIR      71  62  74 CALM      29.95R
MEDFORD        PTCLDY    64  63  95 CALM      29.99R
WAUSAU         CLEAR     70  64  81 CALM      29.98R
WIS RAPIDS     CLEAR     71  64  78 S6        30.00R
MARSHFIELD     MOCLDY    69  63  81 S6        29.98R
RICE LAKE      MOCLDY    73  65  78 SE8       29.94R
$$

...NORTHEAST IOWA...


CITY           SKY/WX    TMP DP  RH WIND       PRES   REMARKS
WATERLOO       CLEAR     70  64  81 S7        29.96S
DUBUQUE        CLEAR     68  63  84 S6        30.02R
DECORAH        CLEAR     70  64  83 S7        29.97S
MASON CITY     CLEAR     69  66  90 S8        29.96R
CHARLES CITY   CLEAR     70  68  94 S7        29.96S
OELWEIN          N/A     66  66 100 S7        29.99R
$$

...ELSEWHERE IN IOWA...


CITY           SKY/WX    TMP DP  RH WIND       PRES   REMARKS
DES MOINES     CLEAR     73  67  81 S7        29.95R
IOWA CITY      CLEAR     67  63  87 CALM      30.00S
FORT DODGE     CLEAR     74  32  21 S12       29.94R
MARSHALLTOWN   CLEAR     70  67  90 SE7       29.96S
CEDAR RAPIDS   CLEAR     69  64  84 SE5       29.99R
$$

...NORTHERN ILLINOIS...


CITY           SKY/WX    TMP DP  RH WIND       PRES   REMARKS
CHICAGO-OHARE  CLEAR     74  65  73 W3        30.03S
CHICAGO-MIDWAY CLEAR     77  67  71 CALM      30.03S
MOLINE         CLEAR     69  63  81 CALM      30.00S
ROCKFORD       CLEAR     68  64  87 CALM      30.04R
PEORIA         CLEAR     72  66  81 CALM      30.03R
$$

NOTE: "FAIR" INDICATES FEW OR NO CLOUDS BELOW 12,000 FEET WITH NO
SIGNIFICANT WEATHER AND/OR OBSTRUCTIONS TO VISIBILITY. WIND
SPEEDS ARE IN MILES-PER-HOUR.




USA.gov is the U.S. government's official web portal to all federal, state and local government web resources and services.